Location: Unspecified
(50.7693°N, 0.0000°E)
Time: 04:25:26
(UTC+00:00)

deb Explorer IX - Pass Details

Date: 01 October 2020
Orbit: 537 x 1106 km, 38.8° (Epoch: 19 October)

Event Time Altitude Azimuth Distance (km) Brightness Sun altitude
Rises 19:13:31 0° 249° (WSW) 2,951 ? -16.0°
Reaches altitude 10° 19:16:45 10° 228° (SW) 1,945 ? -16.5°
Maximum altitude 19:19:23 16° 191° (S) 1,550 ? -16.9°
Enters shadow 19:20:51 13° 167° (SSE) 1,641 ? -17.1°
